{"data":{"norad_id":68089,"intl_designator":"2026-042W","name":"STARLINK-37004","alt_names":[],"object_type":"PAYLOAD","status":"ACTIVE","operator":null,"country":"US","launch_date":"2026-03-04","launch_site_code":"AFETR","launch_vehicle":null,"mission":null,"orbit_class":"UNKNOWN","rcs_meters":null,"size_class":null,"mass_kg":null,"dimensions":null,"purposes":["comms"],"wikipedia_slug":null,"has_3d_model":false,"image_url":null,"decayed_at":null,"tle_current":{"epoch":"2026-09-19T18:32:51.319680Z","epoch_age_seconds":118310,"freshness":"FRESH","line1":"1 68089U 26042W   26262.77281620  .00016214  00000+0  48981-3 0  9992","line2":"2 68089  53.1605 353.4372 0001277  84.5485 275.5663 15.34410636 32070","mean_motion":15.34410636,"eccentricity":0.0001277,"inclination_deg":53.1605,"raan_deg":353.4372,"arg_perigee_deg":84.5485,"mean_anomaly_deg":275.5663,"bstar":0.00048981,"rev_number":3207,"period_min":93.847107561369,"perigee_km":461.79805669449,"apogee_km":463.54519921807,"semimajor_km":6840.8086279563,"source":"CELESTRAK","updated_at":"2026-09-20T09:00:43.781999Z"}}}